星链-4779 (STARLINK-4779 )

导读 | 星芒AI

STARLINK-4779 是 SpaceX 星链计划中的一颗低轨通信卫星,属于第 21 批星链组网卫星。该卫星于 2023 年发射,部署在约 550 公里的近地轨道,旨在为全球用户提供高速互联网服务。作为星链星座的一部分,STARLINK-4779 采用先进推进系统和激光通信技术,支持星座内高速数据传输,提升网络稳定性和覆盖范围。其运行有助于推动偏远地区互联网普及,同时为商业和军事用户提供可靠的通信保障。

基本信息
目录编号:
53864
目录名称:
STARLINK-4779
国际标识:
2022-114AY
轨道中心:
EARTH
卫星名称:
星链-4779
卫星全名:
星链-4779 (STARLINK-4779 )
卫星状态:
在轨 (已飞行1143 天)
发射日期:
2022-09-19 UTC
国别 :
美国 (US)
星等 :
--
轨道信息
数据来源 国际轨道数据 AOE轨道数据
星历时间 2025-11-05T03:09:31+0800
5小时前
查看轨道信息
2025-11-02T08:00:00+0800
3天前
查看轨道信息
半长轴 6917.888km 6917.898km
偏心率 0.0001398 0.0001427
轨道倾角 53.216° 53.217°
近地点辐角 90.238° 89.137°
升交点赤经 124.346° 136.910°
平近点角 269.877° 182.953°
近地点 538.785km 538.775km
远地点 540.721km 540.751km
周期 95.438分钟 95.438分钟
每日圈数 15.088376 15.088344
详细信息
固有亮度:
5
最大亮度:
2.5
卫星平台:
Starlink v1.5
覆盖范围:
全球
运营商:
太空探索技术公司
运营商所在国:
美国
制造商(研发单位):
太空探索技术公司
制造商所在国:
美国
使用方式:
暂无
卫星简介
星链(Starlink)计划是由太空探索技术公司(SpaceX)提出的一个巨型低轨卫星互联网星座项目,计划在2019年至2024年间在太空搭建由约1.2万颗卫星组成的“星链”网络,其中1584颗将部署在地球上空550千米处的近地轨道,并从2020年开始工作。该卫星仍在工作。
2D轨道图
3D轨道图
轨道高度分析图
轨道倾角分析图
轨道综合分析图
查看轨道综合分析图